Trinidad, Colorado, United States (81082)
Lat: 37.17N, Lon: 104.5W
Wx Zone: COZ088
Local Info
Past Weather Observations for Thursday, November 20, 2014

NOTE: This archive is for the closest National Weather Service station to Trinidad. Information may differ from the station used for current weather conditions.

Click here for Long-term Archive

Time Weather Temperature Dewpoint Humidity Pressure Winds Precip Visibility
23:54
Clear
30°F / -1°C 21°F / -6°C 69% 30.01 in
(1016 mb)
WNW 3.5 mph
(WNW 6 kph)
- 10SM
22:54
Clear
32°F / 0°C 23°F / -5°C 69% 30.01 in
(1016 mb)
WNW 6.9 mph
(WNW 11 kph)
- 10SM
21:54
Clear
30°F / -1°C 23°F / -5°C 75% 30.01 in
(1016 mb)
WNW 9.2 mph
(WNW 15 kph)
- 10SM
20:54
Partly Cloudy
34°F / 1°C 25°F / -4°C 70% 30.01 in
(1016 mb)
W 9.2 mph
(W 15 kph)
- 10SM
19:54
Clear
34°F / 1°C 25°F / -4°C 70% 30.01 in
(1016 mb)
W 6.9 mph
(W 11 kph)
- 10SM
18:54
Mostly Cloudy
36°F / 2°C 25°F / -4°C 65% 30.01 in
(1016 mb)
NW 8.1 mph
(NW 13 kph)
- 10SM
17:54
Clear
37°F / 3°C 21°F / -6°C 52% 30.01 in
(1016 mb)
NW 5.8 mph
(NW 9 kph)
- 10SM
16:54
Clear
43°F / 6°C 21°F / -6°C 42% 29.98 in
(1015 mb)
NW 4.6 mph
(NW 7 kph)
- 10SM
15:54
Clear
46°F / 8°C 21°F / -6°C 37% 29.98 in
(1015 mb)
Calm - 10SM
14:54
Clear
50°F / 10°C 19°F / -7°C 30% 29.95 in
(1014 mb)
ENE 8.1 mph
(ENE 13 kph)
- 10SM
13:54
Clear
48°F / 9°C 19°F / -7°C 32% 29.95 in
(1014 mb)
E 6.9 mph
(E 11 kph)
- 10SM
12:54
Clear
45°F / 7°C 19°F / -7°C 37% 29.98 in
(1015 mb)
SE 5.8 mph
(SE 9 kph)
- 10SM
11:54
Partly Cloudy
43°F / 6°C 18°F / -8°C 36% 30.01 in
(1016 mb)
SE 6.9 mph
(SE 11 kph)
- 10SM
10:54
Clear
39°F / 4°C 23°F / -5°C 52% 30.04 in
(1017 mb)
S 3.5 mph
(S 6 kph)
- 10SM
09:54
Clear
45°F / 7°C 18°F / -8°C 34% 30.04 in
(1017 mb)
NW 3.5 mph
(NW 6 kph)
- 10SM
08:54
Clear
36°F / 2°C 21°F / -6°C 56% 30.04 in
(1017 mb)
W 9.2 mph
(W 15 kph)
- 10SM
07:54
Partly Cloudy
28°F / -2°C 19°F / -7°C 69% 30.04 in
(1017 mb)
NW 10.4 mph
(NW 17 kph)
- 10SM
06:54
Mostly Cloudy
23°F / -5°C 18°F / -8°C 80% 30.01 in
(1016 mb)
WNW 10.4 mph
(WNW 17 kph)
- 10SM
05:54
Clear
27°F / -3°C 18°F / -8°C 69% 30.01 in
(1016 mb)
W 8.1 mph
(W 13 kph)
- 10SM
04:54
Clear
27°F / -3°C 18°F / -8°C 69% 30.01 in
(1016 mb)
W 9.2 mph
(W 15 kph)
- 10SM
03:54
Clear
27°F / -3°C 18°F / -8°C 69% 30.01 in
(1016 mb)
NW 6.9 mph
(NW 11 kph)
- 10SM
02:54
Clear
28°F / -2°C 19°F / -7°C 69% 30.01 in
(1016 mb)
SSW 9.2 mph
(SSW 15 kph)
- 10SM
01:54
Clear
30°F / -1°C 21°F / -6°C 69% 30.01 in
(1016 mb)
SSW 9.2 mph
(SSW 15 kph)
- 10SM
00:54
Clear
30°F / -1°C 21°F / -6°C 69% 30.01 in
(1016 mb)
SSW 11.5 mph
(SSW 19 kph)
- 10SM
Time Weather Temperature Dewpoint Humidity Pressure Winds Precip Visibility


Weather for websites

WeatherForYou.com, LLC is not responsible for any damages or problems caused by this service. Current weather conditions are obtained from the closest station including government and personal stations which may have varying degrees of accuracy. Weather forecasts are derived from the NOAA NDFD. Like all things, this site belongs to Jesus Christ... He just trusts me to maintain it. If you have any questions or comments email webmaster@weatherforyou.com

Copyright © 2014, WeatherForYou.com LLC. All rights reserved.